www.pogodaiklimat.ru

Погода и климат >> Архив погоды >> Турция >> Газиантеп


ПОГОДА в Газиантепе

  • Прогноз погоды в Газиантепе
  • Монитор погоды в Газиантепе

АРХИВ ПОГОДЫ в Газиантепе

Время (UTC), дата Ветер
(напр.,м/с)
 
Видим.   Явления Облачность Т
(С)
Тd
(С)
f
(%)
Тe
(С)
Тes
(С)
Комфортность P
(гПа)
Po
(гПа)
Тmin
(С)
Tmax
(С)
R
(мм)
R24
(мм)
S
(см)
15 14.05 штиль 0
{6}
10 км ясно +29.9 +11.7 33 +31 +33 жарко 1010.0 932.5
18 14.05 нст 1
{6}
20 км ясно +22.2 +2.3 27 +22 +22 комфорт 1010.6 933.6 +32.0
21 14.05 СЗ 2
{4}
10 км ясно +17.6 +11.3 67 +18 +18 1011.2 933.9
00 15.05 штиль 0
{4}
10 км ясно +14.9 +10.5 75 +15 +15 1011.2 933.7
03 15.05 СЗ 1
{3}
10 км ясно +14.9 +9.0 68 +15 +16 1011.4 933.8
06 15.05 СВ 1
{6}
10 км ясно +27.5 +11.0 36 +28 +40 жарко 1011.3 934.9 +12.6
09 15.05 Ю 2
{4}
10 км ясно +30.1 +9.7 28 +30 +50 жарко 1011.5 934.3
12 15.05 З 2
{6}
10 км ясно +31.6 +8.3 24 +31 +45 жарко 1010.4 933.1
15 15.05 штиль 0
{4}
10 км ясно +32.3 +10.2 26 +32 +35 жарко 1008.8 931.7
18 15.05 СЗ 2
{4}
10 км ясно +22.5 +11.7 50 +25 +25 комфорт 1008.7 932.0 +33.5
21 15.05 З 1
{3}
10 км ясно +17.3 +11.3 68 +18 +18 1009.0 931.9
00 16.05 С 3
{4}
10 км ясно +18.1 +10.6 62 +18 +18 1007.4 930.7
03 16.05 З 2
{4}
10 км ясно +12.7 +9.6 81 +12 +13 1007.9 930.6
06 16.05 СВ 2
{6}
10 км ясно +28.6 +9.3 30 +29 +39 жарко 1007.9 931.4 +12.6
09 16.05 В 3
{6}
10 км ясно +31.5 +8.4 24 +30 +49 жарко 1007.9 931.1
12 16.05 Ю 4
{7}
10 км ясно +33.0 +8.4 22 +32 +42 жарко 1006.0 929.6
15 16.05 Ю 2
{8}
10 км ясно +31.9 +9.1 24 +31 +33 жарко 1005.5 928.3
18 16.05 штиль 0
{8}
10 км ясно +21.7 +10.9 50 +24 +24 комфорт 1005.0 928.6 +33.5
21 16.05 СЗ 2
{4}
10 км ясно +17.9 +9.0 56 +18 +18 1005.6 929.0
00 17.05 штиль 0
{4}
10 км ясно +15.0 +8.9 67 +15 +15 1005.2 928.5
03 17.05 штиль 0
{4}
10 км ясно +17.8 +10.0 60 +18 +18 1004.9 928.4
06 17.05 В 4
{5}
10 км ясно +28.1 +6.9 26 +27 +35 жарко 1005.5 929.0 +14.6
09 17.05 В 5
{9}
10 км ясно +31.4 +8.8 25 +31 +41 жарко 1004.8 928.3
12 17.05 Ю 4
{9}
10 км ясно +33.1 +5.1 17 +31 +40 жарко 1002.9 926.4
15 17.05 ЮЗ 5
{9}
10 км ясно +31.4 +7.0 22 +30 +31 жарко 1001.8 925.5
18 17.05 штиль 0
{9}
10 км ясно +22.3 +7.0 37 +23 +23 комфорт 1002.3 926.1 +33.8
21 17.05 С 2
{3}
10 км ясно +19.1 +7.3 46 +20 +20 1002.3 926.1
00 18.05 З 3
{4}
10 км ясно +16.0 +7.0 55 +16 +16 1002.9 926.5
03 18.05 ЮЗ 3
{8}
10 км ясно +15.2 +9.1 67 +15 +15 1003.7 926.9
06 18.05 ЮЗ 3
{8}
10 км ясно +23.2 +10.4 44 +25 +33 комфорт 1005.1 928.1 +14.2
09 18.05 ЮЗ 6
{10}
10 км ясно +25.4 +9.6 37 +26 +35 жарко 1005.3 928.1
12 18.05 З 6
{10}
10 км ясно +26.7 +6.4 27 +26 +31 жарко 1005.0 927.6
15 18.05 З 7
{11}
10 км ясно +24.0 +3.4 26 +23 +24 комфорт 1005.9 928.0
18 18.05 З 4
{11}
10 км ясно +17.7 +2.9 37 +18 +18 1007.5 929.7 +27.1
21 18.05 штиль 0
{5}
10 км ясно +14.4 +4.2 50 +14 +14 1008.2 930.2
00 19.05 СЗ 1
{5}
10 км ясно +10.6 +3.6 62 +11 +11 1008.5 930.1
03 19.05 штиль 0
{3}
10 км ясно +8.4 +5.5 82 +8 +8 1009.5 930.4
06 19.05 З 2
{5}
10 км ясно +19.8 +10.7 56 +22 +33 комфорт 1009.5 931.1 +8.4
09 19.05 ЮЗ 2
{8}
10 км ясно +25.7 +6.0 28 +25 +47 комфорт 1008.7 930.7
12 19.05 СЗ 4
{8}
10 км ясно +27.2 +6.4 27 +27 +37 жарко 1008.2 929.9
15 19.05 З 5
{9}
10 км ясно +25.5 +7.9 33 +26 +27 жарко 1008.4 929.6
18 19.05 З 3
{9}
10 км ясно +20.3 +11.1 55 +22 +22 комфорт 1008.6 930.6 +27.8
21 19.05 З 2
{6}
10 км ясно +19.9 +10.6 55 +22 +22 комфорт 1008.6 931.3
00 20.05 штиль 0
{6}
10 км ясно +16.2 +9.7 65 +16 +16 1009.7 932.0
03 20.05 С 1
{5}
10 км ясно +14.6 +9.2 70 +16 +16 1011.1 932.9
06 20.05 СЗ 4
{7}
10 км ясно +24.6 +7.5 34 +25 +31 комфорт 1011.2 933.6 +14.1
09 20.05 З 8-14
{14}
10 км ясно +27.0 +7.8 30 +27 +30 жарко 1011.3 934.0
12 20.05 З 7
{14}
10 км ясно +28.6 +9.5 30 +29 +33 жарко 1010.3 932.8
15 20.05 З 8
{12}
10 км ясно +27.7 +8.4 30 +28 +28 жарко 1010.1 932.3
18 20.05 З 9
{12}
10 км ясно +23.1 +8.8 40 +24 +24 комфорт 1010.0 932.9 +29.1
21 20.05 З 6
{12}
10 км ясно +21.2 +11.4 54 +23 +23 комфорт 1010.9 933.8
00 21.05 штиль 0
{12}
10 км ясно +17.3 +10.6 65 +17 +17 1010.6 933.2
03 21.05 штиль 0 10 км ясно +15.3 +10.0 71 +15 +16 1011.4 933.6
06 21.05 Ю 2
{4}
10 км ясно +23.9 +11.5 46 +25 +35 комфорт 1012.5 935.1 +14.6
09 21.05 Ю 1
{5}
10 км 5/0
[Ci fib]
+29.8 +12.0 33 +30 +52 опасность
солнечного
удара
1011.8 935.0
12 21.05 З 5
{10}
10 км 5/3 1200 м
[Cu hum Ac trans]
+31.7 +6.9 21 +30 +35 жарко 1010.4 933.4

 

Местоположение метеостанции Газиантеп (Турция): широта 37.08 долгота 37.37 высота над уровнем моря 701 м.

В архиве по умолчанию представлена погода в Газиантепе за последнюю неделю. Архивные данные за месяц целиком и за предыдущие месяцы, начиная с января 2011 года, Вы можете получить, выбрав интересующий диапазон дат из раскрывающегося списка и нажав кнопку "Ввод!".


*Определитесь, кто Вы:
робот инопланетянин человек

Внимание! Время в таблицах - всемирное. Для получения местного времени необходимо прибавить поправку, которая равна 2 ч.

Смотрите также архив погоды в соседних городах и на ближайших метеорологических станциях:

Погода в Газиантепе (Турция) (3 км)
Погода в Килисе (Турция) (46 км)
Погода в Кахраманмараше (Турция) (70 км)
Погода в Османие (Турция) (99 км)
Погода в Алеппо (Сирия) (101 км)
Погода в Адыямане (Турция) (110 км)
Погода в Искендеруне (Турция) (120 км)
Погода в Шанлыурфе (Турция) (124 км)
Погода в Аэропорту GAP (Турция) (141 км)
Погода в Эт-Телль-эль-Абьяде (Сирия) (147 км)

Пояснения к столбцам:

Ветер - указаны скорость ветра в м/с - средняя за 10 мин, порывы в срок и между сроками (в фигурных скобках) и направление, откуда дует ветер: С - северный, СВ - северо-восточный, В - восточный, ЮВ - юго-восточный, Ю - южный, ЮЗ - юго-западный, З - западный, СЗ - северо-западный.
Видимость - горизонтальная дальность видимости в метрах или километрах. При видимости от 1 до 10 км при отсутствии осадков обычно наблюдается дымка, при ухудшении видимости до 1 км и менее - туман. В сухую погоду видимость может ухудшаться дымом, пылью или мглою.
Явления - указаны атмосферные явления, наблюдавшиеся в срок или в последний час перед сроком; фигурными скобками обозначены явления, наблюдавшиеся между сроками (за 1-3 часа до срока); квадратными скобками обозначены град или гололедные отложения с указанием их диаметра в мм.
Облачность - указаны через наклонную черту общая и нижняя облачность в баллах и высота нижней границы облаков в метрах; квадратными скобками обозначены формы облаков: Ci - перистые, Cs - перисто-слоистые, Cc - перисто-кучевые, Ac - высококучевые, As - высокослоистые, Sc - слоисто-кучевые, Ns - слоисто-дождевые, Cu - кучевые, Cb - кучево-дождевые. Подробнее классификацию облаков см. в Атласе облаков (PDF).
T - Температура воздуха - температура, измеренная на высоте 2 м над землей.
Td - Температура точки росы - температура, при понижении до которой содержащийся в воздухе водяной пар достигнет насыщения.
f - Относительная влажность воздуха - влажноcть воздуха, измеренная на высоте 2 м над землей.
Te - Эффективная температура - температура, которую ощущает одетый по сезону человек в тени. Характеристика душности погоды. При расчете учитывается влияние влажности воздуха и скорости ветра на теплоощущения человека.
Tes - Эффективная температура на солнце - температура, которую ощущает человек, с поправкой на солнечный нагрев. Характеристика знойности погоды. Зависит от высоты солнца над горизонтом, облачности и скорости ветра. Ночью, в пасмурную погоду, а также при ветре 12 м/с и более поправка равна нулю.
P - Атмосферное давление - приведенное к уровню моря атмосферное давление.
Po - Атмосферное давление - измеренное на уровне метеостанции атмосферное давление.
Tmin - Минимальная температура - минимум температуры воздуха на высоте 2 м над землей.
Tmax - Максимальная температура - максимум температуры воздуха на высоте 2 м над землей.
R - Количество осадков - Количество выпавших осадков за период времени, мм. При наведении курсора мыши на число - период времени, за который выпало указанное количество осадков.
R24 - Количество осадков - Количество выпавших осадков за 24 часа, мм.
S - Снежный покров - Высота снежного покрова, см. При наведении курсора мыши на число - состояние снежного покрова и степень покрытия местности в баллах.